Location: Newark
(49.2191°N, 12.6671°E)
Time: 20:12:59
(UTC+00:00)

Transit 2A - Pass Details

Date: 29 January 2020
Orbit: 600 x 959 km, 66.7° (Epoch: 22 February)

Event Time Altitude Azimuth Distance (km) Brightness Sun altitude
Rises 19:00:15 0° 231° (SW) 2,867 9.6 -29.4°
Reaches altitude 10° 19:02:35 10° 238° (WSW) 1,949 8.7 -29.7°
Enters shadow 19:05:30 35° 266° (W) 969 7.0 -30.2°
